Location: Boiro
(42.6475°N, 8.8834°W)
Time: 09:23:55
(UTC+01:00)

Vanguard 3 - Pass Details

Date: 02 December 2021
Orbit: 508 x 3260 km, 33.3° (Epoch: 24 January)

Event Time Altitude Azimuth Distance (km) Brightness Sun altitude
Rises 12:17:55 0° 277° (W) 6,044 11.4 23.5°
Reaches altitude 10° 12:24:13 10° 261° (W) 4,431 10.9 23.8°
Maximum altitude 12:30:36 17° 227° (SW) 3,213 10.7 24.1°
Drops below altitude 10° 12:35:25 10° 190° (S) 3,160 11.6 24.3°
Sets 12:38:50 0° 169° (S) 3,710 12.0 24.5°
